Tracking 22779 objects as of 15-Apr-2021
HD Live streaming from Space Station
objects crossing your sky now

ONEWEB-0175

Track ONEWEB-0175 now!
10-day predictions
ONEWEB-0175 is classified as:


NORAD ID: 48073
Int'l Code: 2021-025AH
Perigee: 453.3 km
Apogee: 462.5 km
Inclination: 87.4 °
Period: 93.6 minutes
Semi major axis: 6828 km
RCS: Unknown
Launch date: March 25, 2021
Source: United States (US)
Launch site: VOSTOCHNY COSMODROME (VOSTO)
aabbcc
Your satellite tracking list
Your tracking list is empty




NASA's NSSDC Master Catalog

Two Line Element Set (TLE):
1 48073U 21025AH  21104.58334491  .00063685  00000-0  16685-2 0  9993
2 48073  87.3960 342.9061 0006681 193.3272  83.2815 15.38429131  1780
Source of the keplerian elements: AFSPC